Tracking 23757 objects as of 26-Oct-2021
HD Live streaming from Space Station
objects crossing your sky now

IRIDIUM 33 DEB

Track IRIDIUM 33 DEB now!
10-day predictions


NORAD ID: 38020
Int'l Code: 1997-051YG
Perigee: 707.0 km
Apogee: 959.3 km
Inclination: 86.3 °
Period: 101.4 minutes
Semi major axis: 7204 km
RCS: 0.0174 m2 (small)
Launch date: September 14, 1997
Source: United States (US)
Launch site: TYURATAM MISSILE AND SPACE COMPLEX (TTMTR)

Note: This is SATELLITE DEBRIS
aabbcc
Your satellite tracking list
Your tracking list is empty




NASA's NSSDC Master Catalog

Two Line Element Set (TLE):
1 38020U 97051YG  21297.01359296  .00002591  00000-0  10411-2 0  9997
2 38020  86.3093  30.7880 0175105  64.2569 297.6575 14.19796815625028
Source of the keplerian elements: AFSPC